Location: Newark
(33.4133°N, 82.3847°W)
Time: 14:02:41
(UTC+00:00)

N. Korean satellite - Visible Passes

Search period start: 23 January 2020 00:00
Search period end: 02 February 2020 00:00
Orbit: 454 x 507 km, 97.2° (Epoch: 22 January)

Date Brightness Start Highest point End Pass type
(mag) Time Alt. Az. Time Alt. Az. Time Alt. Az.
23 Jan 6.4 11:22:03 10° N 11:25:36 69° WNW 11:29:12 10° SSW visible
23 Jan 9.8 23:28:03 10° SW 23:30:10 16° W 23:32:19 10° NW visible
24 Jan 7.6 10:56:39 10° NNE 11:00:08 47° E 11:03:38 10° S visible
25 Jan 9.3 10:31:48 10° NE 10:34:34 21° E 10:37:22 10° SSE visible
26 Jan 7.0 11:39:04 10° N 11:42:26 38° WNW 11:45:49 10° SW visible
27 Jan 6.5 11:13:23 10° NNE 11:17:00 87° ESE 11:20:39 10° SSW visible
27 Jan 9.6 23:18:53 10° SW 23:21:29 20° W 23:24:06 10° NW visible
28 Jan 8.3 10:48:08 10° NNE 10:51:29 35° E 10:54:53 10° SSE visible
29 Jan 9.7 10:23:33 10° NE 10:25:55 16° E 10:28:17 10° SE visible
29 Jan 7.8 11:56:19 10° NNW 11:59:13 23° WNW 12:02:07 10° SW visible
30 Jan 6.7 11:30:18 10° N 11:33:49 51° WNW 11:37:23 10° SSW visible
30 Jan 10.1 23:37:05 10° WSW 23:38:25 12° W 23:39:45 10° WNW visible
31 Jan 7.0 11:04:44 10° NNE 11:08:22 65° E 11:12:01 10° S visible
01 Feb 8.8 10:39:39 10° NE 10:42:50 27° E 10:46:01 10° SSE visible
